SCP
1 1 1 1 1 1 1 1 1 1 1 1 1 1 1 1 1 1 1 1 1 1 1 1 1 1 1 1 1 1 1 1 1 1 1 0 0 0 0 0 0 0 0
0 1 1 1 1 1 1 1 1 1 1 1 1 1 1 1 1 1 1 1 1 1 1 1 1 1 1 1 1 1 1 1 1 1 1 0 0 0 0 0 0 0 0
0 0 0 0 1 1 1 1 1 1 1 1 1 1 1 1 1 1 1 1 1 1 1 1 1 1 1 1 1 1 1 1 1 1 1 1 0 0 0 0 0 0 0
0 0 0 0 1 1 1 1 1 1 1 1 1 1 1 1 1 1 1 1 1 1 1 1 1 1 1 1 1 1 1 1 1 1 1 1 0 0 0 0 0 0 0
0 0 0 0 1 1 1 1 1 1 1 1 1 1 1 1 1 0 0 0 0 0 0 0 0 0 0 0 0 0 0 0 0 0 0 0 0 0 0 0 0 0 0
0 0 0 0 0 1 1 1 1 1 1 1 1 1 1 0 0 0 0 0 0 0 0 0 0 0 0 0 0 0 0 0 0 0 0 0 0 0 0 0 0 0 0
0 0 0 0 0 1 1 1 1 1 1 1 1 1 0 0 0 0 0 0 0 0 0 0 0 0 0 0 0 0 0 0 0 0 0 0 0 0 0 0 0 0 0
0 0 0 0 0 0 1 1 1 1 1 1 0 0 0 0 0 0 0 0 0 0 0 0 0 0 0 0 0 0 0 0 0 0 0 0 0 0 0 0 0 0 0
0 0 0 0 0 0 0 0 0 0 0 0 0 0 0 0 0 0 0 0 0 0 0 0 0 0 0 0 0 0 0 0 0 0 0 0 0 0 0 0 0 0 0
0 0 0 0 0 0 0 0 0 0 0 0 0 0 0 0 0 0 0 0 0 0 0 0 0 0 0 0 0 0 0 0 0 0 0 0 0 0 0 0 0 0 0
0 0 0 0 0 0 0 0 0 0 0 0 0 0 0 0 0 0 0 0 0 0 0 0 0 0 0 0 0 0 0 0 0 0 0 0 0 0 0 0 0 0 0
0 0 0 0 0 0 0 0 0 0 0 0 0 0 0 0 0 0 0 0 0 0 0 0 0 0 0 0 0 0 0 0 0 0 0 0 0 0 0 0 0 0 0
0 0 0 0 0 0 0 0 0 0 0 0 0 0 0 0 0 0 0 0 0 0 0 0 0 0 0 0 0 0 0 0 0 0 0 0 0 0 0 0 0 0 0
0 0 0 0 0 0 0 0 0 0 0 0 0 0 0 0 0 0 0 0 0 0 0 0 0 0 0 0 0 0 0 0 0 0 0 0 0 0 0 0 0 0 0
0 0 0 0 0 0 0 0 0 0 0 0 0 0 0 0 0 0 0 0 0 0 0 0 0 0 0 0 0 0 0 0 0 0 0 0 0 0 0 0 0 0 0
0 0 0 0 0 0 0 0 0 0 0 0 0 0 0 0 0 0 0 0 0 0 0 0 0 0 0 0 0 0 0 0 0 0 0 0 0 0 0 0 0 0 0
0 0 0 0 0 0 0 0 0 0 0 0 0 0 0 0 0 0 0 0 0 0 0 0 0 0 0 0 0 0 0 0 0 0 0 0 0 0 0 0 0 0 0
0 0 0 0 0 0 0 0 0 0 0 0 0 0 0 0 0 0 0 0 0 0 0 0 0 0 0 0 0 0 0 0 0 0 0 0 0 0 0 0 0 0 0
0 0 0 0 0 0 0 0 0 0 0 0 0 0 0 0 0 0 0 0 0 0 0 0 0 0 0 0 0 0 0 0 0 0 0 0 0 0 -0 0 0 0 0
0 0 0 0 0 0 0 0 0 0 0 0 0 0 0 0 0 0 0 0 0 0 0 0 0 0 0 0 0 0 0 0 0 0 0 0 0 0 -0 0 0 0 0
0 0 0 0 0 0 0 0 0 0 0 0 0 0 0 0 0 0 0 0 0 0 0 0 0 0 0 0 0 0 0 0 0 0 0 0 0 -0 -0 0 0 0 0
0 0 0 0 0 0 0 0 0 0 0 0 0 0 0 0 0 0 0 0 0 0 0 0 0 0 0 0 0 0 0 0 0 0 0 0 0 0 0 0 0 0 0
0 0 0 0 0 0 0 0 0 0 0 0 0 0 0 0 0 0 0 0 0 0 0 0 0 0 0 0 0 0 0 0 0 0 0 0 0 0 0 0 0 0 0
0 0 0 0 0 0 0 0 0 0 0 0 0 0 0 0 0 0 0 0 0 0 0 0 0 0 0 0 0 0 0 0 0 0 0 0 0 0 0 0 0 0 0
0 0 0 0 0 0 0 0 0 0 0 0 0 0 0 0 0 0 0 0 0 0 0 0 0 0 0 0 0 0 0 0 0 0 0 0 0 0 0 0 0 0 0
0 0 0 0 0 0 0 0 0 0 0 0 0 0 0 0 0 0 0 0 0 0 0 0 0 0 0 0 0 0 0 0 0 0 0 0 0 0 0 0 0 0 0
Wind_Speed
6 7 6 5 3 3 4 6 8 8 7 7 7 7 7 6 5 4 5 6 6 7 7 5 5 5 4 4 4 4 4 3 2 3 3 3 2 1 2 2 3 3 4
7 7 7 7 6 3 2 3 5 6 6 6 6 5 5 4 3 3 2 3 4 5 5 6 5 4 4 3 3 3 3 2 2 3 3 3 2 1 2 2 3 4 4
7 8 8 7 6 6 4 2 2 3 4 5 5 4 4 3 2 3 3 2 2 3 3 3 3 3 3 3 2 3 4 3 2 2 2 3 2 0 2 4 4 4 4
7 8 8 8 7 6 4 3 3 3 3 4 5 7 5 5 4 4 4 5 5 5 5 5 4 3 3 3 2 1 1 2 2 1 1 2 2 2 1 2 3 5 6
8 8 8 7 7 6 5 5 5 5 4 3 4 6 6 6 6 7 8 7 7 8 8 7 6 7 6 6 6 5 3 2 1 0 0 1 0 1 2 1 2 3 5
9 9 9 9 9 8 7 6 6 7 6 6 6 7 9 9 10 9 8 6 6 7 9 9 8 8 7 8 7 7 8 7 6 5 4 3 2 2 1 1 1 2 3
9 9 10 10 9 9 9 8 8 9 8 9 9 9 10 11 10 8 8 7 6 7 8 8 9 8 9 9 8 9 9 9 9 7 6 5 5 3 2 1 1 1 2
9 10 10 10 10 10 10 9 10 10 10 11 10 11 11 9 9 10 9 9 8 8 9 10 10 10 10 10 9 9 9 9 9 9 7 5 6 5 4 3 2 0 2
9 10 10 10 10 11 11 11 11 12 12 12 13 12 12 12 12 12 11 10 9 9 11 11 11 10 10 10 10 9 9 8 8 8 8 6 5 5 5 4 4 3 1
9 9 9 10 10 10 11 12 13 13 13 12 12 11 13 12 13 13 13 12 11 10 11 11 11 10 10 10 9 9 9 9 9 8 9 7 6 5 5 5 4 4 3
8 8 9 9 10 11 12 12 13 13 13 13 13 14 13 13 13 13 12 11 11 11 11 11 10 10 10 10 9 10 9 10 9 8 9 9 8 6 6 5 5 5 4
9 9 9 9 10 11 12 12 12 13 12 12 13 14 13 14 13 13 12 12 11 11 11 10 10 11 10 9 9 9 9 9 9 9 9 8 7 7 7 5 6 5 4
9 9 9 9 10 10 11 11 12 12 12 12 13 13 13 13 13 12 11 11 11 11 11 10 10 10 9 9 9 9 9 9 9 8 8 8 8 7 6 6 6 4 4
9 9 9 9 10 10 11 11 12 12 12 13 13 13 13 13 12 12 12 11 11 11 10 10 10 9 9 9 8 8 8 8 8 8 8 8 8 8 6 5 5 5 3
10 9 9 9 10 10 11 11 12 12 12 13 13 13 12 12 11 11 11 10 10 10 10 10 10 9 8 8 7 7 7 7 7 7 7 8 7 7 6 6 6 6 4
10 10 10 10 10 10 11 11 11 11 11 13 13 12 11 11 11 10 10 10 10 9 9 9 9 9 9 9 10 7 6 6 6 6 5 5 5 3 1 1 4 6 6
11 11 10 9 9 10 11 11 11 11 11 12 11 10 10 10 9 10 10 9 9 9 9 8 9 10 10 9 9 9 4 6 5 5 5 5 6 4 5 0 5 4 4
12 11 10 9 9 10 10 11 11 10 11 11 10 10 9 9 9 9 9 8 8 8 7 8 8 9 9 8 7 9 2 5 5 5 5 5 5 7 7 6 4 3 1
12 11 11 10 10 10 10 10 10 10 10 10 9 9 8 9 8 8 8 7 7 7 7 7 8 8 8 8 8 11 2 4 5 5 6 6 6 6 8 6 4 4 3
11 12 11 11 11 10 9 10 10 9 9 9 8 8 7 8 8 7 7 7 6 6 7 7 7 7 7 7 8 12 2 4 4 4 5 7 6 7 8 6 6 6 6
13 12 11 10 10 9 9 10 9 9 8 8 8 7 7 7 7 6 6 6 6 6 6 7 6 6 6 6 7 10 5 4 4 4 4 7 6 6 6 7 6 6 8
14 13 11 10 10 9 9 9 9 8 8 7 7 7 6 5 6 6 6 5 5 6 6 5 5 5 5 6 5 5 5 7 4 5 5 6 5 4 4 4 6 8 10
13 12 12 12 10 9 8 10 9 7 7 7 7 7 6 5 5 5 5 5 3 4 4 4 5 5 5 5 2 1 1 4 3 5 4 3 4 5 1 1 5 7 4
12 11 12 11 10 9 9 9 8 7 7 6 6 6 5 6 5 3 4 4 4 4 4 4 5 5 5 5 4 2 2 3 2 1 3 6 5 3 2 2 2 4 5
10 10 10 11 11 10 9 8 7 6 6 6 5 5 5 6 5 6 6 5 8 7 6 5 4 4 6 7 7 7 6 6 6 6 2 3 3 4 4 4 4 4 4
10 10 10 11 11 10 9 7 6 6 5 5 4 4 5 4 5 6 7 8 7 6 6 7 7 6 7 4 4 3 4 5 8 6 3 4 5 5 5 5 5 5 5
Wind_Direction
48 46 43 46 82 130 171 189 191 193 185 182 188 195 201 203 193 193 196 200 205 206 204 211 205 211 213 220 224 225 226 239 253 258 259 252 244 275 317 329 339 353 3
45 41 38 43 45 58 98 158 185 188 189 191 191 192 186 187 176 160 157 187 195 195 190 193 196 196 193 197 211 213 227 230 234 263 271 259 223 149 41 31 27 17 20
43 39 35 34 36 39 45 86 143 163 174 175 173 161 154 149 157 145 111 80 102 127 139 161 171 165 165 162 179 205 214 215 204 254 271 276 271 136 96 62 49 38 34
45 39 34 32 29 33 42 59 84 97 127 153 162 166 170 163 150 119 97 76 70 80 85 87 93 98 101 109 108 80 223 222 212 180 262 280 311 284 213 110 68 52 41
48 43 36 37 36 35 51 59 72 74 79 102 140 149 139 119 108 105 96 82 72 72 76 80 82 82 79 77 73 70 61 52 40 38 261 227 257 298 273 252 70 64 48
52 46 39 38 38 40 51 62 72 72 70 74 82 97 110 113 114 111 104 95 84 73 72 78 79 78 80 79 76 73 71 66 62 57 45 34 37 32 9 6 36 59 55
58 49 41 40 39 45 49 58 68 68 70 76 77 83 92 97 99 100 98 94 84 77 73 76 78 78 79 81 81 79 73 71 70 66 64 58 51 34 24 40 69 87 93
63 58 50 46 45 49 53 59 69 71 71 76 78 81 86 89 88 86 87 84 82 81 81 80 81 82 84 85 84 82 78 76 75 70 65 64 54 39 31 24 11 106 114
68 65 58 52 52 54 55 60 70 73 74 78 81 79 80 86 89 88 85 83 83 84 82 81 81 80 82 84 84 82 80 78 77 77 72 65 61 47 39 33 15 348 5
75 69 66 61 60 63 67 68 70 74 76 79 81 83 83 85 88 89 87 87 87 87 88 87 85 84 82 84 85 87 83 83 77 71 65 57 58 53 46 37 33 18 4
87 78 72 67 69 70 72 74 74 76 77 79 83 85 87 87 87 87 86 86 85 84 85 86 86 85 83 81 80 82 81 79 77 74 70 63 47 41 39 38 36 33 27
99 92 86 81 77 76 76 76 78 80 80 83 86 86 87 88 86 85 85 84 83 84 85 84 84 83 82 79 80 81 79 78 75 70 66 61 59 50 39 31 38 42 34
108 100 92 88 85 83 83 83 83 84 86 88 88 87 86 87 86 86 85 85 86 85 84 84 83 82 82 81 80 81 80 77 73 67 63 57 50 44 43 32 34 32 38
115 107 100 95 94 93 93 92 90 91 92 91 90 88 87 87 87 88 87 87 87 87 87 84 82 80 78 78 82 83 81 79 74 67 61 52 45 38 30 36 33 23 12
118 113 109 105 103 100 97 95 95 94 95 94 92 91 91 90 90 88 88 89 89 89 87 85 81 77 71 58 61 82 82 78 75 69 62 60 54 38 15 13 12 4 354
127 120 116 114 110 109 106 103 101 102 101 99 99 100 100 97 93 92 92 89 86 85 84 81 79 73 64 37 24 23 77 72 68 63 59 82 77 68 138 18 345 343 344
136 129 125 120 118 115 114 112 111 109 105 103 103 102 101 99 98 98 95 92 90 88 85 83 80 77 63 37 23 3 36 68 59 51 40 41 52 7 17 238 220 223 232
137 132 128 121 119 118 117 115 114 112 108 106 104 104 103 99 98 96 94 95 95 93 89 84 82 82 66 37 17 340 42 70 66 54 42 36 36 29 350 340 359 7 33
136 132 130 128 126 123 123 121 118 115 110 106 105 103 102 100 97 94 95 97 99 98 95 87 83 83 75 38 9 337 78 79 76 64 50 23 34 32 334 325 2 11 24
132 132 132 132 130 129 131 126 122 118 112 107 105 103 99 94 91 91 94 96 100 101 97 89 80 74 69 47 12 340 24 75 84 88 97 73 25 4 339 342 4 9 5
135 135 135 134 133 137 136 129 126 118 112 110 107 103 99 95 92 93 96 101 100 97 95 96 90 79 65 77 35 358 357 32 49 60 63 64 31 6 345 328 359 350 315
141 141 138 134 137 141 137 128 120 117 117 114 108 103 97 93 98 98 97 98 105 116 113 108 103 99 91 59 52 14 5 339 23 41 45 57 17 352 344 352 352 310 293
142 144 143 139 141 144 138 126 124 127 124 118 111 107 102 92 92 98 104 109 112 107 107 107 100 94 96 110 151 201 296 318 3 51 43 355 312 284 222 44 304 301 326
142 147 147 143 143 144 133 128 131 131 125 119 116 115 114 109 95 83 83 86 90 96 99 92 90 94 91 63 47 69 134 189 186 105 164 214 244 278 349 314 325 352 10
146 150 147 144 143 141 136 137 138 139 132 128 125 122 111 102 99 78 52 51 60 37 27 55 65 62 69 43 6 348 16 10 15 332 356 22 22 13 20 16 17 3 6
148 148 147 144 143 144 144 144 144 144 140 140 136 125 117 119 118 119 111 60 63 76 56 32 16 65 58 29 20 19 2 339 322 314 23 25 18 15 13 8 10 17 15